Regional Weather Roundup
Issued by NWS

Home | Current Version | Previous Version | Text Only | Print | Product List | Glossary Off
Versions: 1 2 3 4 5 6 7 8 9 10 11 12 13 14 15 16 17 18 19 20 21 22 23 24 25 26 27 28 29 30 31 32 33 34 35 36 37 38 39 40 41 42 43 44 45 46 47 48 49 50

278
ASUS44 KLIX 201110
RWRLA
LOUISIANA WEATHER ROUNDUP
NATIONAL WEATHER SERVICE NEW ORLEANS LA
600 AM CDT MON OCT 20 2014

NOTE: "FAIR" INDICATES FEW OR NO CLOUDS BELOW 12,000 FEET WITH NO
      SIGNIFICANT WEATHER AND/OR OBSTRUCTIONS TO VISIBILITY.
      SKY/WX - SKY CONDITION AND SIGNIFICANT WEATHER.
      TMP - AIR TEMPERATURE.    DP   - DEWPOINT TEMPERATURE.
      RH  - RELATIVE HUMIDITY.  PRES - PRESSURE.
      HX  - HEAT INDEX.         WCI  - WIND CHILL INDEX.

*  THESE STATIONS ARE NOT NWS OR FAA STATIONS AND ARE NOT UNDER
   NWS QUALITY CONTROL.

LAZ040-048-061>063-065-066-069-201200-
SOUTHEAST LOUISIANA

CITY           SKY/WX    TMP DP  RH WIND       PRES   REMARKS
N.O. AUDUBON     N/A     61  58  91 MISG        N/A
N.O. INTL ARPT PTCLDY    59  55  87 CALM      30.03R
N.O. LAKEFRONT CLEAR     68  59  73 E8        30.03S
N.O. DOWNTOWN* FAIR      66  54  63 NE5       30.03S
SLIDELL        CLEAR     49  46  90 N3        30.04S
BATON ROUGE    CLEAR     52  49  89 CALM      30.04S
BOOTHVILLE     CLEAR     71  62  73 NE5       30.02S
BELLE CHASSE   CLEAR     57  53  86 CALM      30.02S
BOGALUSA*        N/A     46  44  90 CALM      30.07S
NEW ROADS*     FAIR      53  50  90 CALM      30.05R
GONZALES*      FAIR      55  55 100 CALM      30.03S
HAMMOND*       CLEAR     50  46  87 CALM      30.06R
HOUMA*         CLEAR     60  58  94 NE3       30.02S
PORT FOURCHON* SUNNY     70  63  78 NE7       30.04S

$$

LAZ041-044-053-054-201200-
SOUTHWEST LOUISIANA

CITY           SKY/WX    TMP DP  RH WIND       PRES   REMARKS
LAKE CHARLES   PTCLDY    57  53  86 NE6       30.02S
LAFAYETTE      CLEAR     56  54  93 NE3       30.03S
PATTERSON      NOT AVBL
SALT POINT       N/A     63  59  87 CALM      30.02R
NEW IBERIA     CLEAR     59  56  89 NE5       30.03S
CHENAULT AIRPK CLEAR     57  54  88 NE8       30.03S

$$

LAZ027-028-201200-
CENTRAL LOUISIANA

CITY           SKY/WX    TMP DP  RH WIND       PRES   REMARKS
FORT POLK      CLEAR     53  50  87 NE5       30.04S
ALEXANDRIA INT CLEAR     50  49  96 CALM      30.05R
ALEXANDRIA     CLEAR     47  45  93 CALM      30.06R

$$

LAZ001-002-201200-
NORTHWEST LOUISIANA

CITY           SKY/WX    TMP DP  RH WIND       PRES   REMARKS
SHREVEPORT     PTCLDY    49  49 100 CALM      30.07R
BARKSDALE AFB  PTCLDY    50  48  95 NE1       30.07S
DTN SHREVEPORT CLEAR     51  48  89 NE3       30.07R

$$

LAZ014-016-201200-
NORTHEAST LOUISIANA

CITY           SKY/WX    TMP DP  RH WIND       PRES   REMARKS
MONROE         FOG       46  46 100 CALM      30.09S VSB 3/4
TALLULAH       CLEAR     42  40  92 CALM      30.08S

$$




USA.gov is the U.S. government's official web portal to all federal, state and local government web resources and services.